owner,sensor,date,latitude,longitude,vertical_datum,wind_speed,wind_to_direction,wind_speed_of_gust,qcFlag 
TABS,ioos:station:wmo:42045:1,2009-11-01T00:00:00Z,26.2168,-96.4998,4.0,4.338663389,18.26765303,5.99,'11111222,11111222,11111222' 
TABS,ioos:station:wmo:42045:1,2009-11-01T00:30:00Z,26.2168,-96.4998,4.0,4.763664556,20.90772112,7.4,'11111222,11111222,11111222' 
TABS,ioos:station:wmo:42045:1,2009-11-01T01:00:00Z,26.2168,-96.4998,4.0,4.128849719,27.8681383,6.17,'11111222,11111222,11111222' 
TABS,ioos:station:wmo:42045:1,2009-11-01T01:30:00Z,26.2168,-96.4998,4.0,3.486789354,30.31529677,5.6,'11111222,11111222,11111222' 
TABS,ioos:station:wmo:42045:1,2009-11-01T02:00:00Z,26.2168,-96.4998,4.0,3.828315556,26.02932086,5.27,'11111222,11111222,11111222' 
TABS,ioos:station:wmo:42045:1,2009-11-01T02:30:00Z,26.2168,-96.4998,4.0,3.279176726,25.07995793,4.95,'11111222,11111222,11111222' 
TABS,ioos:station:wmo:42045:1,2009-11-01T03:00:00Z,26.2168,-96.4998,4.0,3.490515721,47.90265639,4.88,'11111222,11111222,11111222' 
TABS,ioos:station:wmo:42045:1,2009-11-01T03:30:00Z,26.2168,-96.4998,4.0,3.528002268,36.93456199,5.12,'11111222,11111222,11111222' 
TABS,ioos:station:wmo:42045:1,2009-11-01T04:00:00Z,26.2168,-96.4998,4.0,3.494066399,23.26292064,5.67,'11111222,11111222,11111222' 
TABS,ioos:station:wmo:42045:1,2009-11-01T04:30:00Z,26.2168,-96.4998,4.0,4.012031904,37.09809685,5.54,'11111222,11111222,11111222' 
TABS,ioos:station:wmo:42045:1,2009-11-01T05:00:00Z,26.2168,-96.4998,4.0,3.522059057,41.20092172,5.32,'11111222,11111222,11111222' 
TABS,ioos:station:wmo:42045:1,2009-11-01T05:30:00Z,26.2168,-96.4998,4.0,2.771082821,32.77220876,4.97,'11111222,11111222,11111222' 
TABS,ioos:station:wmo:42045:1,2009-11-01T06:00:00Z,26.2168,-96.4998,4.0,2.218941189,56.95413916,3.55,'11111222,11111222,11111222' 
TABS,ioos:station:wmo:42045:1,2009-11-01T06:30:00Z,26.2168,-96.4998,4.0,2.517339866,45.32156657,3.94,'11111222,11111222,11111222' 
TABS,ioos:station:wmo:42045:1,2009-11-01T07:00:00Z,26.2168,-96.4998,4.0,2.430576063,32.05507229,3.96,'11111222,11111222,11111222' 
TABS,ioos:station:wmo:42045:1,2009-11-01T07:30:00Z,26.2168,-96.4998,4.0,1.160387866,38.35105468,2.59,'11111222,11111222,11111222' 
TABS,ioos:station:wmo:42045:1,2009-11-01T08:00:00Z,26.2168,-96.4998,4.0,2.33893138,35.25261697,4.26,'11111222,11111222,11111222' 
TABS,ioos:station:wmo:42045:1,2009-11-01T08:30:00Z,26.2168,-96.4998,4.0,2.317175004,58.23016179,3.37,'11111222,11111222,11111222' 
TABS,ioos:station:wmo:42045:1,2009-11-01T09:00:00Z,26.2168,-96.4998,4.0,1.757299064,354.7758542,2.83,'11111222,11111222,11111222' 
TABS,ioos:station:wmo:42045:1,2009-11-01T09:30:00Z,26.2168,-96.4998,4.0,1.982044399,39.47215709,3.91,'11111222,11111222,11111222' 
TABS,ioos:station:wmo:42045:1,2009-11-01T10:00:00Z,26.2168,-96.4998,4.0,1.936620768,27.35866283,3.34,'11111222,11111222,11111222' 
TABS,ioos:station:wmo:42045:1,2009-11-01T10:30:00Z,26.2168,-96.4998,4.0,3.018774586,41.2391824,4.5,'11111222,11111222,11111222' 
TABS,ioos:station:wmo:42045:1,2009-11-01T11:00:00Z,26.2168,-96.4998,4.0,3.023375597,25.88675527,4.79,'11111222,11111222,11111222' 
TABS,ioos:station:wmo:42045:1,2009-11-01T11:30:00Z,26.2168,-96.4998,4.0,3.422528305,33.92193117,5.66,'11111222,11111222,11111222' 
TABS,ioos:station:wmo:42045:1,2009-11-01T12:00:00Z,26.2168,-96.4998,4.0,2.542833066,50.42489799,4.52,'11111222,11111222,11111222' 
TABS,ioos:station:wmo:42045:1,2009-11-01T12:30:00Z,26.2168,-96.4998,4.0,2.999233235,54.77288795,4.37,'11111222,11111222,11111222' 
TABS,ioos:station:wmo:42045:1,2009-11-01T13:00:00Z,26.2168,-96.4998,4.0,2.678843034,26.85173269,4.64,'11111222,11111222,11111222' 
TABS,ioos:station:wmo:42045:1,2009-11-01T13:30:00Z,26.2168,-96.4998,4.0,3.145870309,50.28737839,5.05,'11111222,11111222,11111222' 
TABS,ioos:station:wmo:42045:1,2009-11-01T14:00:00Z,26.2168,-96.4998,4.0,3.878247027,55.08025873,6.07,'11111222,11111222,11111222' 
TABS,ioos:station:wmo:42045:1,2009-11-01T14:30:00Z,26.2168,-96.4998,4.0,2.99347624,47.30110766,5.37,'11111222,11111222,11111222' 
TABS,ioos:station:wmo:42045:1,2009-11-01T15:00:00Z,26.2168,-96.4998,4.0,3.725506677,72.34283463,5.67,'11111222,11111222,11111222' 
TABS,ioos:station:wmo:42045:1,2009-11-01T15:30:00Z,26.2168,-96.4998,4.0,3.757672152,42.73493506,5.41,'11111222,11111222,11111222' 
TABS,ioos:station:wmo:42045:1,2009-11-01T16:00:00Z,26.2168,-96.4998,4.0,3.010813843,54.46198439,5.08,'11111222,11111222,11111222' 
TABS,ioos:station:wmo:42045:1,2009-11-01T16:30:00Z,26.2168,-96.4998,4.0,3.842317009,67.50594342,5.61,'11111222,11111222,11111222' 
TABS,ioos:station:wmo:42045:1,2009-11-01T17:00:00Z,26.2168,-96.4998,4.0,3.211790778,46.76595067,4.8,'11111222,11111222,11111222' 
TABS,ioos:station:wmo:42045:1,2009-11-01T17:30:00Z,26.2168,-96.4998,4.0,2.859965035,55.25382501,4.72,'11111222,11111222,11111222' 
TABS,ioos:station:wmo:42045:1,2009-11-01T18:00:00Z,26.2168,-96.4998,4.0,2.758296576,46.1748148,4.81,'11111222,11111222,11111222' 
TABS,ioos:station:wmo:42045:1,2009-11-01T18:30:00Z,26.2168,-96.4998,4.0,2.839330907,67.86097084,4.97,'11111222,11111222,11111222' 
TABS,ioos:station:wmo:42045:1,2009-11-01T19:00:00Z,26.2168,-96.4998,4.0,2.964456105,37.87468462,4.5,'11111222,11111222,11111222' 
TABS,ioos:station:wmo:42045:1,2009-11-01T19:30:00Z,26.2168,-96.4998,4.0,2.765230551,46.02532799,5.24,'11111222,11111222,11111222' 
TABS,ioos:station:wmo:42045:1,2009-11-01T20:00:00Z,26.2168,-96.4998,4.0,3.517285885,50.65295701,5.64,'11111222,11111222,11111222' 
TABS,ioos:station:wmo:42045:1,2009-11-01T20:30:00Z,26.2168,-96.4998,4.0,3.925366225,65.78520106,6.24,'11111222,11111222,11111222' 
TABS,ioos:station:wmo:42045:1,2009-11-01T21:00:00Z,26.2168,-96.4998,4.0,3.388952641,58.5139855,6.37,'11111222,11111222,11111222' 
TABS,ioos:station:wmo:42045:1,2009-11-01T21:30:00Z,26.2168,-96.4998,4.0,2.72484862,54.55975844,5.03,'11111222,11111222,11111222' 
TABS,ioos:station:wmo:42045:1,2009-11-01T22:00:00Z,26.2168,-96.4998,4.0,4.469418307,61.82912638,6.52,'11111222,11111222,11111222' 
TABS,ioos:station:wmo:42045:1,2009-11-01T22:30:00Z,26.2168,-96.4998,4.0,4.301162634,54.46198439,6.2,'11111222,11111222,11111222' 
TABS,ioos:station:wmo:42045:1,2009-11-01T23:00:00Z,26.2168,-96.4998,4.0,4.940647731,54.05755126,6.69,'11111222,11111222,11111222' 
TABS,ioos:station:wmo:42045:1,2009-11-01T23:30:00Z,26.2168,-96.4998,4.0,4.341808379,57.7005212,6.12,'11111222,11111222,11111222' 
TABS,ioos:station:wmo:42045:1,2009-11-02T00:00:00Z,26.2168,-96.4998,4.0,3.705914192,43.90638867,5.32,'11111222,11111222,11111222' 
TABS,ioos:station:wmo:42045:1,2009-11-02T00:30:00Z,26.2168,-96.4998,4.0,3.332086433,49.13726822,4.79,'11111222,11111222,11111222' 
TABS,ioos:station:wmo:42045:1,2009-11-02T01:00:00Z,26.2168,-96.4998,4.0,3.087069808,65.09486851,4.26,'11111222,11111222,11111222' 
TABS,ioos:station:wmo:42045:1,2009-11-02T01:30:00Z,26.2168,-96.4998,4.0,3.172002522,53.20201938,4.83,'11111222,11111222,11111222' 
TABS,ioos:station:wmo:42045:1,2009-11-02T02:00:00Z,26.2168,-96.4998,4.0,3.453027657,47.11209064,5.11,'11111222,11111222,11111222' 
TABS,ioos:station:wmo:42045:1,2009-11-02T02:30:00Z,26.2168,-96.4998,4.0,3.718776681,48.37893202,5.17,'11111222,11111222,11111222' 
TABS,ioos:station:wmo:42045:1,2009-11-02T03:00:00Z,26.2168,-96.4998,4.0,3.680244557,47.42228611,5.27,'11111222,11111222,11111222' 
TABS,ioos:station:wmo:42045:1,2009-11-02T03:30:00Z,26.2168,-96.4998,4.0,3.465602401,60.62388236,5.01,'11111222,11111222,11111222' 
TABS,ioos:station:wmo:42045:1,2009-11-02T04:00:00Z,26.2168,-96.4998,4.0,3.606799135,50.17376183,5.4,'11111222,11111222,11111222' 
TABS,ioos:station:wmo:42045:1,2009-11-02T04:30:00Z,26.2168,-96.4998,4.0,3.453143495,56.81580375,4.98,'11111222,11111222,11111222' 
TABS,ioos:station:wmo:42045:1,2009-11-02T05:00:00Z,26.2168,-96.4998,4.0,4.266907545,51.94802789,6.15,'11111222,11111222,11111222' 
TABS,ioos:station:wmo:42045:1,2009-11-02T05:30:00Z,26.2168,-96.4998,4.0,3.604011654,32.19046553,4.77,'11111222,11111222,11111222' 
TABS,ioos:station:wmo:42045:1,2009-11-02T06:00:00Z,26.2168,-96.4998,4.0,3.533624202,48.09682935,5.58,'11111222,11111222,11111222' 
TABS,ioos:station:wmo:42045:1,2009-11-02T06:30:00Z,26.2168,-96.4998,4.0,2.728002933,36.95361212,4.48,'11111222,11111222,11111222' 
TABS,ioos:station:wmo:42045:1,2009-11-02T07:00:00Z,26.2168,-96.4998,4.0,3.283169201,22.19002655,5.01,'11111222,11111222,11111222' 
TABS,ioos:station:wmo:42045:1,2009-11-02T07:30:00Z,26.2168,-96.4998,4.0,2.776220452,48.21188656,4.7,'11111222,11111222,11111222' 
TABS,ioos:station:wmo:42045:1,2009-11-02T08:00:00Z,26.2168,-96.4998,4.0,3.905444917,34.46289703,5.18,'11111222,11111222,11111222' 
TABS,ioos:station:wmo:42045:1,2009-11-02T08:30:00Z,26.2168,-96.4998,4.0,2.785821243,29.69358113,4.56,'11111222,11111222,11111222' 
TABS,ioos:station:wmo:42045:1,2009-11-02T09:00:00Z,26.2168,-96.4998,4.0,2.623909297,33.02357987,4.14,'11111222,11111222,11111222' 
TABS,ioos:station:wmo:42045:1,2009-11-02T09:30:00Z,26.2168,-96.4998,4.0,3.368679266,31.89692501,4.53,'11111222,11111222,11111222' 
TABS,ioos:station:wmo:42045:1,2009-11-02T10:00:00Z,26.2168,-96.4998,4.0,3.193383785,35.18281068,4.91,'11111222,11111222,11111222' 
TABS,ioos:station:wmo:42045:1,2009-11-02T10:30:00Z,26.2168,-96.4998,4.0,4.433565157,45.09106485,5.94,'11111222,11111222,11111222' 
TABS,ioos:station:wmo:42045:1,2009-11-02T11:00:00Z,26.2168,-96.4998,4.0,4.369084572,41.9381665,6.05,'11111222,11111222,11111222' 
TABS,ioos:station:wmo:42045:1,2009-11-02T11:30:00Z,26.2168,-96.4998,4.0,4.790918492,47.28352925,6.56,'11111222,11111222,11111222' 
TABS,ioos:station:wmo:42045:1,2009-11-02T12:00:00Z,26.2168,-96.4998,4.0,5.067326711,47.39893649,6.84,'11111222,11111222,11111222' 
TABS,ioos:station:wmo:42045:1,2009-11-02T12:30:00Z,26.2168,-96.4998,4.0,5.035076961,38.87276563,6.35,'11111222,11111222,11111222' 
TABS,ioos:station:wmo:42045:1,2009-11-02T13:00:00Z,26.2168,-96.4998,4.0,4.448381728,46.0015728,6.01,'11111222,11111222,11111222' 
TABS,ioos:station:wmo:42045:1,2009-11-02T13:30:00Z,26.2168,-96.4998,4.0,4.773258845,39.559365,7.02,'11111222,11111222,11111222' 
TABS,ioos:station:wmo:42045:1,2009-11-02T14:00:00Z,26.2168,-96.4998,4.0,4.838233149,48.43497839,6.65,'11111222,11111222,11111222' 
TABS,ioos:station:wmo:42045:1,2009-11-02T14:30:00Z,26.2168,-96.4998,4.0,3.874080536,41.75605158,5.27,'11111222,11111222,11111222' 
TABS,ioos:station:wmo:42045:1,2009-11-02T15:00:00Z,26.2168,-96.4998,4.0,4.53841382,51.26099597,6.52,'11111222,11111222,11111222' 
TABS,ioos:station:wmo:42045:1,2009-11-02T15:30:00Z,26.2168,-96.4998,4.0,5.231605872,39.9595139,7.45,'11111222,11111222,11111222' 
TABS,ioos:station:wmo:42045:1,2009-11-02T16:00:00Z,26.2168,-96.4998,4.0,5.071853705,49.55766969,6.28,'11111222,11111222,11111222' 
TABS,ioos:station:wmo:42045:1,2009-11-02T16:30:00Z,26.2168,-96.4998,4.0,5.485663132,47.58547261,7.31,'11111222,11111222,11111222' 
TABS,ioos:station:wmo:42045:1,2009-11-02T17:00:00Z,26.2168,-96.4998,4.0,4.810509329,49.72135029,6.94,'11111222,11111222,11111222' 
TABS,ioos:station:wmo:42045:1,2009-11-02T17:30:00Z,26.2168,-96.4998,4.0,5.134744395,40.57678323,6.87,'11111222,11111222,11111222' 
TABS,ioos:station:wmo:42045:1,2009-11-02T18:00:00Z,26.2168,-96.4998,4.0,4.312586231,40.48570641,5.85,'11111222,11111222,11111222' 
TABS,ioos:station:wmo:42045:1,2009-11-02T18:30:00Z,26.2168,-96.4998,4.0,3.702026472,36.65292479,4.84,'11111222,11111222,11111222' 
TABS,ioos:station:wmo:42045:1,2009-11-02T19:00:00Z,26.2168,-96.4998,4.0,4.186932051,46.1609235,5.88,'11111222,11111222,11111222' 
TABS,ioos:station:wmo:42045:1,2009-11-02T19:30:00Z,26.2168,-96.4998,4.0,4.653299904,44.12899685,6.18,'11111222,11111222,11111222' 
TABS,ioos:station:wmo:42045:1,2009-11-02T20:00:00Z,26.2168,-96.4998,4.0,5.034679732,44.67780205,6.41,'11111222,11111222,11111222' 
TABS,ioos:station:wmo:42045:1,2009-11-02T20:30:00Z,26.2168,-96.4998,4.0,4.675863557,51.51209211,6.36,'11111222,11111222,11111222' 
TABS,ioos:station:wmo:42045:1,2009-11-02T21:00:00Z,26.2168,-96.4998,4.0,4.715050371,56.68032169,6.24,'11111222,11111222,11111222' 
TABS,ioos:station:wmo:42045:1,2009-11-02T21:30:00Z,26.2168,-96.4998,4.0,4.6123855,48.60340616,6.13,'11111222,11111222,11111222' 
TABS,ioos:station:wmo:42045:1,2009-11-02T22:00:00Z,26.2168,-96.4998,4.0,4.566103372,47.75131111,6.05,'11111222,11111222,11111222' 
TABS,ioos:station:wmo:42045:1,2009-11-02T22:30:00Z,26.2168,-96.4998,4.0,4.447887139,60.20683458,6.24,'11111222,11111222,11111222' 
TABS,ioos:station:wmo:42045:1,2009-11-02T23:00:00Z,26.2168,-96.4998,4.0,5.464951967,52.06031723,7.53,'11111222,11111222,11111222' 
TABS,ioos:station:wmo:42045:1,2009-11-02T23:30:00Z,26.2168,-96.4998,4.0,5.790034542,52.93185602,7.05,'11111222,11111222,11111222' 
TABS,ioos:station:wmo:42045:1,2009-11-03T00:00:00Z,26.2168,-96.4998,4.0,5.939730634,48.95894002,7.82,'11111222,11111222,11111222' 
TABS,ioos:station:wmo:42045:1,2009-11-03T00:30:00Z,26.2168,-96.4998,4.0,5.912782763,46.23313203,7.63,'11111222,11111222,11111222' 
TABS,ioos:station:wmo:42045:1,2009-11-03T01:00:00Z,26.2168,-96.4998,4.0,5.72889169,54.95028773,7.33,'11111222,11111222,11111222' 
TABS,ioos:station:wmo:42045:1,2009-11-03T01:30:00Z,26.2168,-96.4998,4.0,5.343294864,48.79357571,7.47,'11111222,11111222,11111222' 
TABS,ioos:station:wmo:42045:1,2009-11-03T02:00:00Z,26.2168,-96.4998,4.0,5.315496214,42.4836513,7.01,'11111222,11111222,11111222' 
TABS,ioos:station:wmo:42045:1,2009-11-03T02:30:00Z,26.2168,-96.4998,4.0,5.016014354,53.26683832,6.65,'11111222,11111222,11111222' 
TABS,ioos:station:wmo:42045:1,2009-11-03T03:00:00Z,26.2168,-96.4998,4.0,6.34035488,59.26836181,8.9,'11111222,11111222,11111222' 
TABS,ioos:station:wmo:42045:1,2009-11-03T03:30:00Z,26.2168,-96.4998,4.0,6.759127163,48.59844401,8.32,'11111222,11111222,11111222' 
TABS,ioos:station:wmo:42045:1,2009-11-03T04:00:00Z,26.2168,-96.4998,4.0,6.692570508,49.909105,8.43,'11111222,11111222,11111222' 
TABS,ioos:station:wmo:42045:1,2009-11-03T04:30:00Z,26.2168,-96.4998,4.0,6.661478815,42.26180832,8.32,'11111222,11111222,11111222' 
TABS,ioos:station:wmo:42045:1,2009-11-03T05:00:00Z,26.2168,-96.4998,4.0,6.290453084,50.15911493,7.32,'11111222,11111222,11111222' 
TABS,ioos:station:wmo:42045:1,2009-11-03T05:30:00Z,26.2168,-96.4998,4.0,6.739354569,44.21815525,8.36,'11111222,11111222,11111222' 
TABS,ioos:station:wmo:42045:1,2009-11-03T06:00:00Z,26.2168,-96.4998,4.0,6.562926177,44.01192622,8.37,'11111222,11111222,11111222' 
TABS,ioos:station:wmo:42045:1,2009-11-03T06:30:00Z,26.2168,-96.4998,4.0,6.438089779,37.17218467,7.96,'11111222,11111222,11111222' 
TABS,ioos:station:wmo:42045:1,2009-11-03T07:00:00Z,26.2168,-96.4998,4.0,5.655201146,42.49146603,7.38,'11111222,11111222,11111222' 
TABS,ioos:station:wmo:42045:1,2009-11-03T07:30:00Z,26.2168,-96.4998,4.0,6.024383786,41.09614994,7.87,'11111222,11111222,11111222' 
TABS,ioos:station:wmo:42045:1,2009-11-03T08:00:00Z,26.2168,-96.4998,4.0,6.326784333,39.09794984,7.99,'11111222,11111222,11111222' 
TABS,ioos:station:wmo:42045:1,2009-11-03T08:30:00Z,26.2168,-96.4998,4.0,5.16643978,48.84504792,6.76,'11111222,11111222,11111222' 
TABS,ioos:station:wmo:42045:1,2009-11-03T09:00:00Z,26.2168,-96.4998,4.0,6.010432597,34.2185648,7.96,'11111222,11111222,11111222' 
TABS,ioos:station:wmo:42045:1,2009-11-03T09:30:00Z,26.2168,-96.4998,4.0,6.37978056,31.14829769,7.92,'11111222,11111222,11111222' 
TABS,ioos:station:wmo:42045:1,2009-11-03T10:00:00Z,26.2168,-96.4998,4.0,5.927090349,30.63190535,7.89,'11111222,11111222,11111222' 
TABS,ioos:station:wmo:42045:1,2009-11-03T10:30:00Z,26.2168,-96.4998,4.0,5.458516282,39.20048024,7.57,'11111222,11111222,11111222' 
TABS,ioos:station:wmo:42045:1,2009-11-03T11:00:00Z,26.2168,-96.4998,4.0,6.002741041,48.84966663,7.69,'11111222,11111222,11111222' 
TABS,ioos:station:wmo:42045:1,2009-11-03T11:30:00Z,26.2168,-96.4998,4.0,6.054758459,34.16220075,7.79,'11111222,11111222,11111222' 
TABS,ioos:station:wmo:42045:1,2009-11-03T12:00:00Z,26.2168,-96.4998,4.0,6.512334451,37.4502802,8.02,'11111222,11111222,11111222' 
TABS,ioos:station:wmo:42045:1,2009-11-03T12:30:00Z,26.2168,-96.4998,4.0,6.625896166,44.44936953,8.48,'11111222,11111222,11111222' 
TABS,ioos:station:wmo:42045:1,2009-11-03T13:00:00Z,26.2168,-96.4998,4.0,7.281758029,35.61055871,9.37,'11111222,11111222,11111222' 
TABS,ioos:station:wmo:42045:1,2009-11-03T13:30:00Z,26.2168,-96.4998,4.0,6.214796859,32.18100075,8.4,'11111222,11111222,11111222' 
TABS,ioos:station:wmo:42045:1,2009-11-03T14:00:00Z,26.2168,-96.4998,4.0,6.763261048,41.82318446,8.91,'11111222,11111222,11111222' 
TABS,ioos:station:wmo:42045:1,2009-11-03T14:30:00Z,26.2168,-96.4998,4.0,6.265365113,44.35303406,8.31,'11111222,11111222,11111222' 
TABS,ioos:station:wmo:42045:1,2009-11-03T15:00:00Z,26.2168,-96.4998,4.0,6.12987765,38.90766532,7.99,'11111222,11111222,11111222' 
TABS,ioos:station:wmo:42045:1,2009-11-03T15:30:00Z,26.2168,-96.4998,4.0,6.320957206,52.132634,7.9,'11111222,11111222,11111222' 
TABS,ioos:station:wmo:42045:1,2009-11-03T16:00:00Z,26.2168,-96.4998,4.0,7.312249996,48.65895727,9.29,'11111222,11111222,11111222' 
TABS,ioos:station:wmo:42045:1,2009-11-03T16:30:00Z,26.2168,-96.4998,4.0,6.576838146,44.13723436,8.18,'11111222,11111222,11111222' 
TABS,ioos:station:wmo:42045:1,2009-11-03T17:00:00Z,26.2168,-96.4998,4.0,6.49058549,40.43821796,8.57,'11111222,11111222,11111222' 
TABS,ioos:station:wmo:42045:1,2009-11-03T17:30:00Z,26.2168,-96.4998,4.0,6.040405616,37.53359362,7.85,'11111222,11111222,11111222' 
TABS,ioos:station:wmo:42045:1,2009-11-03T18:00:00Z,26.2168,-96.4998,4.0,6.169619113,43.029281,7.91,'11111222,11111222,11111222' 
TABS,ioos:station:wmo:42045:1,2009-11-03T18:30:00Z,26.2168,-96.4998,4.0,7.672137903,37.21313175,9.41,'11111222,11111222,11111222' 
TABS,ioos:station:wmo:42045:1,2009-11-03T19:00:00Z,26.2168,-96.4998,4.0,6.551717332,43.0204928,7.97,'11111222,11111222,11111222' 
TABS,ioos:station:wmo:42045:1,2009-11-03T19:30:00Z,26.2168,-96.4998,4.0,6.482484092,32.7827343,8.69,'11111222,11111222,11111222' 
TABS,ioos:station:wmo:42045:1,2009-11-03T20:00:00Z,26.2168,-96.4998,4.0,6.068451203,33.50647474,7.58,'11111222,11111222,11111222' 
TABS,ioos:station:wmo:42045:1,2009-11-03T20:30:00Z,26.2168,-96.4998,4.0,5.620889609,40.09239595,7.95,'11111222,11111222,11111222' 
TABS,ioos:station:wmo:42045:1,2009-11-03T21:00:00Z,26.2168,-96.4998,4.0,5.653149565,35.71411299,7.12,'11111222,11111222,11111222' 
TABS,ioos:station:wmo:42045:1,2009-11-03T21:30:00Z,26.2168,-96.4998,4.0,5.498045107,42.86222893,7.14,'11111222,11111222,11111222' 
TABS,ioos:station:wmo:42045:1,2009-11-03T22:00:00Z,26.2168,-96.4998,4.0,5.52655408,35.12762009,7.42,'11111222,11111222,11111222' 
TABS,ioos:station:wmo:42045:1,2009-11-03T22:30:00Z,26.2168,-96.4998,4.0,5.944282968,36.31054276,7.79,'11111222,11111222,11111222' 
TABS,ioos:station:wmo:42045:1,2009-11-03T23:00:00Z,26.2168,-96.4998,4.0,6.219276485,41.6102796,8.05,'11111222,11111222,11111222' 
TABS,ioos:station:wmo:42045:1,2009-11-03T23:30:00Z,26.2168,-96.4998,4.0,5.948621689,36.04124149,7.74,'11111222,11111222,11111222' 
TABS,ioos:station:wmo:42045:1,2009-11-04T00:00:00Z,26.2168,-96.4998,4.0,5.22567699,39.01909877,6.97,'11111222,11111222,11111222' 
TABS,ioos:station:wmo:42045:1,2009-11-04T00:30:00Z,26.2168,-96.4998,4.0,5.17919878,34.85578469,7.02,'11111222,11111222,11111222' 
TABS,ioos:station:wmo:42045:1,2009-11-04T01:00:00Z,26.2168,-96.4998,4.0,4.748831435,24.24398199,6.54,'11111222,11111222,11111222' 
TABS,ioos:station:wmo:42045:1,2009-11-04T01:30:00Z,26.2168,-96.4998,4.0,4.870831551,31.56868685,6.44,'11111222,11111222,11111222' 
TABS,ioos:station:wmo:42045:1,2009-11-04T02:00:00Z,26.2168,-96.4998,4.0,4.872124793,29.51121909,6.61,'11111222,11111222,11111222' 
TABS,ioos:station:wmo:42045:1,2009-11-04T02:30:00Z,26.2168,-96.4998,4.0,5.124099921,37.22741456,7.22,'11111222,11111222,11111222' 
TABS,ioos:station:wmo:42045:1,2009-11-04T03:00:00Z,26.2168,-96.4998,4.0,5.696455038,36.14539683,7.09,'11111222,11111222,11111222' 
TABS,ioos:station:wmo:42045:1,2009-11-04T03:30:00Z,26.2168,-96.4998,4.0,5.920354719,48.14913962,7.43,'11111222,11111222,11111222' 
TABS,ioos:station:wmo:42045:1,2009-11-04T04:00:00Z,26.2168,-96.4998,4.0,5.413806424,47.32019902,7.14,'11111222,11111222,11111222' 
TABS,ioos:station:wmo:42045:1,2009-11-04T04:30:00Z,26.2168,-96.4998,4.0,5.404535133,46.64910312,7.69,'11111222,11111222,11111222' 
TABS,ioos:station:wmo:42045:1,2009-11-04T05:00:00Z,26.2168,-96.4998,4.0,4.802759623,43.56548324,6.81,'11111222,11111222,11111222' 
TABS,ioos:station:wmo:42045:1,2009-11-04T05:30:00Z,26.2168,-96.4998,4.0,4.808326112,53.79707445,6.3,'11111222,11111222,11111222' 
TABS,ioos:station:wmo:42045:1,2009-11-04T06:00:00Z,26.2168,-96.4998,4.0,4.483056993,58.68519913,6.07,'11111222,11111222,11111222' 
TABS,ioos:station:wmo:42045:1,2009-11-04T06:30:00Z,26.2168,-96.4998,4.0,4.254056887,37.16590867,6.97,'11111222,11111222,11111222' 
TABS,ioos:station:wmo:42045:1,2009-11-04T07:00:00Z,26.2168,-96.4998,4.0,3.580460864,49.19009561,5.44,'11111222,11111222,11111222' 
TABS,ioos:station:wmo:42045:1,2009-11-04T07:30:00Z,26.2168,-96.4998,4.0,3.733630941,44.56563469,4.97,'11111222,11111222,11111222' 
TABS,ioos:station:wmo:42045:1,2009-11-04T08:00:00Z,26.2168,-96.4998,4.0,4.028113702,50.54012905,5.18,'11111222,11111222,11111222' 
TABS,ioos:station:wmo:42045:1,2009-11-04T08:30:00Z,26.2168,-96.4998,4.0,4.441193533,45.91195826,5.94,'11111222,11111222,11111222' 
TABS,ioos:station:wmo:42045:1,2009-11-04T09:00:00Z,26.2168,-96.4998,4.0,4.150771013,45.29250448,6.41,'11111222,11111222,11111222' 
TABS,ioos:station:wmo:42045:1,2009-11-04T09:30:00Z,26.2168,-96.4998,4.0,4.534148211,46.5188695,6.76,'11111222,11111222,11111222' 
TABS,ioos:station:wmo:42045:1,2009-11-04T10:00:00Z,26.2168,-96.4998,4.0,4.396589587,54.06810197,6.59,'11111222,11111222,11111222' 
TABS,ioos:station:wmo:42045:1,2009-11-04T10:30:00Z,26.2168,-96.4998,4.0,4.114911907,62.50050466,6.22,'11111222,11111222,11111222' 
TABS,ioos:station:wmo:42045:1,2009-11-04T11:00:00Z,26.2168,-96.4998,4.0,4.851824399,57.45600542,6.58,'11111222,11111222,11111222' 
TABS,ioos:station:wmo:42045:1,2009-11-04T11:30:00Z,26.2168,-96.4998,4.0,4.408287649,54.97569741,6.0,'11111222,11111222,11111222' 
TABS,ioos:station:wmo:42045:1,2009-11-04T12:00:00Z,26.2168,-96.4998,4.0,4.785394446,42.28948755,6.31,'11111222,11111222,11111222' 
TABS,ioos:station:wmo:42045:1,2009-11-04T12:30:00Z,26.2168,-96.4998,4.0,5.445456822,32.55160394,7.12,'11111222,11111222,11111222' 
TABS,ioos:station:wmo:42045:1,2009-11-04T13:00:00Z,26.2168,-96.4998,4.0,4.881444458,41.42853546,6.52,'11111222,11111222,11111222' 
TABS,ioos:station:wmo:42045:1,2009-11-04T13:30:00Z,26.2168,-96.4998,4.0,5.248180637,31.60006575,6.59,'11111222,11111222,11111222' 
TABS,ioos:station:wmo:42045:1,2009-11-04T14:00:00Z,26.2168,-96.4998,4.0,4.328972164,46.49726855,5.83,'11111222,11111222,11111222' 
TABS,ioos:station:wmo:42045:1,2009-11-04T14:30:00Z,26.2168,-96.4998,4.0,5.532494916,39.64615022,6.97,'11111222,11111222,11111222' 
TABS,ioos:station:wmo:42045:1,2009-11-04T15:00:00Z,26.2168,-96.4998,4.0,5.110968597,42.30354323,6.7,'11111222,11111222,11111222' 
TABS,ioos:station:wmo:42045:1,2009-11-04T15:30:00Z,26.2168,-96.4998,4.0,5.54260769,51.37214956,7.05,'11111222,11111222,11111222' 
TABS,ioos:station:wmo:42045:1,2009-11-04T16:00:00Z,26.2168,-96.4998,4.0,5.87715067,50.73084196,7.7,'11111222,11111222,11111222' 
TABS,ioos:station:wmo:42045:1,2009-11-04T16:30:00Z,26.2168,-96.4998,4.0,5.728193432,45.8484466,7.33,'11111222,11111222,11111222' 
TABS,ioos:station:wmo:42045:1,2009-11-04T17:00:00Z,26.2168,-96.4998,4.0,5.303253718,34.31904616,6.59,'11111222,11111222,11111222' 
TABS,ioos:station:wmo:42045:1,2009-11-04T17:30:00Z,26.2168,-96.4998,4.0,5.154027551,42.16868925,6.76,'11111222,11111222,11111222' 
TABS,ioos:station:wmo:42045:1,2009-11-04T18:00:00Z,26.2168,-96.4998,4.0,4.90066322,44.25562685,6.56,'11111222,11111222,11111222' 
TABS,ioos:station:wmo:42045:1,2009-11-04T18:30:00Z,26.2168,-96.4998,4.0,5.736793529,48.25001986,7.06,'11111222,11111222,11111222' 